Miscellaneous Local Product
Issued by NWS North Platte, NE

Home | Current Version | Previous Version | Graphics & Text | Print | Product List | Glossary On
Versions: 1 2 3 4 5 6 7 8 9 10 11 12 13 14 15 16 17 18 19 20 21 22 23 24 25 26 27 28 29 30 31 32 33 34 35 36 37 38 39 40 41 42 43 44 45 46 47 48 49 50
000
AXUS43 KLBF 200810
MISLBF


WESTERN AND NORTH CENTRAL NEBRASKA HOURLY WEATHER ROUNDUP
NATIONAL WEATHER SERVICE NORTH PLATTE NE
300 AM CDT SUN AUG 20 2017

NOTE: "FAIR" INDICATES FEW OR NO CLOUDS BELOW 12,000 FEET WITH NO
SIGNIFICANT WEATHER AND/OR OBSTRUCTIONS TO VISIBILITY.

NOTE: STATIONS NOT REPORTING VARIABLES SUCH AS SKY/WEATHER OR
PRESSURE ARE PROVIDED BY RAWS AND APRS NETWORKS AND ARE NOT UNDER
NATIONAL WEATHER SERVICE QUALITY CONTROL.

...OBSERVATIONS IN AND NEAR THE EASTERN PANHANDLE OF NEBRASKA...

CITY           SKY/WX    TMP DP  RH WIND       PRES   REMARKS
PINE RIDGE     CLEAR     56  50  80 S3        29.95R
GORDON         FAIR      56  48  74 W6        29.93S
CHADRON        CLEAR     57  45  64 CALM      29.96R
ALLIANCE       CLEAR     60  49  66 N9        29.95S
SIDNEY         CLEAR     58  52  80 E3        29.99S
$$

...OBSERVATIONS IN NORTHERN NEBRASKA AND FAR SOUTHERN SOUTH DAKOTA...

CITY           SKY/WX    TMP DP  RH WIND       PRES   REMARKS
WINNER         FAIR      66  62  87 NE7       29.85R
VALENTINE      CLEAR     65  57  75 SW5       29.86S
THEDFORD       CLEAR     62  58  86 CALM      29.89F
AINSWORTH      CLEAR     65  62  87 S6        29.87S
O`NEILL        CLEAR     63  60  92 SE5       29.85S
ORD            CLEAR     64  57  78 CALM      29.83F
BROKEN BOW     CLEAR     69  64  84 S7        29.87F
VALENTINE NWR    N/A     63  59  86 CALM        N/A
HALSEY           N/A     67  57  70 SE6         N/A
BUTTE            N/A     67  63  87 S6          N/A
CHAMBERS         N/A     64  58  82 CALM        N/A
EWING            N/A     67  59  75 CALM        N/A
$$

...OBSERVATIONS IN SOUTHWEST NEBRASKA AND FAR NORTHEAST COLORADO...

CITY           SKY/WX    TMP DP  RH WIND       PRES   REMARKS
HOLYOKE        FAIR      68  55  64 NW5       29.92F
IMPERIAL       PTCLDY    71  56  58 NW9       29.88F
OGALLALA       CLEAR     62  59  90 CALM      29.89S
NORTH PLATTE   CLEAR     67  63  87 E9        29.86F
MCCOOK         CLEAR     71  62  73 SW9       29.86S
LEXINGTON      CLEAR     71  63  76 E13       29.88S
STAPLETON        N/A     63  59  86 CALM        N/A
GOTHENBURG       N/A     68  59  74 E3          N/A
CALLAWAY         N/A     67  63  88 CALM        N/A
$$

...OBSERVATIONS IN CENTRAL LINCOLN COUNTY AREA...

CITY           SKY/WX    TMP DP  RH WIND       PRES   REMARKS
N.P. AIRPORT   CLEAR     67  63  87 E9        29.86F
N.P. DOWNTOWN    N/A     69  64  83 CALM        N/A
N.P. SOUTHEAST   N/A     67  63  86 CALM        N/A
N.P. HILLCREST   N/A     68  62  82 E3          N/A
$$

...SOME OBSERVATIONS FROM AROUND THE REGION...

CITY           SKY/WX    TMP DP  RH WIND       PRES   REMARKS
DENVER         PTCLDY    62  41  46 S10       30.07F
LIMON          CLEAR     53  50  89 N5        30.07F
ASPEN          CLOUDY    54  35  48 SW9       30.31F
LARAMIE        CLOUDY    49  32  52 SE8       30.21S
CASPER         CLEAR     55  35  47 SW3       30.09R
CHEYENNE       CLOUDY    62  30  29 W5        30.12S
SCOTTSBLUFF    CLEAR     58  48  69 NE6       29.95S
GRAND ISLAND   CLOUDY    69  60  73 S8        29.88F
OMAHA          TSTM      70  65  84 SW5       29.98R
SIOUX FALLS    CLOUDY    73  61  65 SW8       29.83F
PIERRE         CLOUDY    73  56  54 N30G38    29.88R
RAPID CITY     CLEAR     63  44  50 NW12      29.99R
BISMARCK       PTCLDY    64  48  56 NW7       29.94R
KANSAS CITY    PTCLDY    78  74  87 S8        29.92R
HILL CITY      CLEAR     75  64  68 SW7       29.89F
WICHITA        PTCLDY    77  71  82 S7        29.91F
DODGE CITY     PTCLDY    75  65  70 SW14      29.95F
OKLAHOMA CITY  PTCLDY    73  69  87 S3        29.97S
DALLAS         MOCLDY    85  72  65 S8        29.94F HX  91
AMARILLO       CLEAR     70  64  81 S10       30.07S
$$




USA.gov is the U.S. government's official web portal to all federal, state and local government web resources and services.